SIA249 HUEN-HKJK

Flight info

Callsign SIA249
Flight time 0h 45m
Altitude 31000
Route PASAN2B PASAN UL433 NAKAT NAKAT3C
Aircraft B738/M-SABDFGRVYL/LB2

Departure

Time 2026-04-26 13:35
Airport Entebbe International Airport (HUEN)

Arrival

Time 2026-04-26 14:20
Airport Jomo Kenyatta International Airport (HKJK)
Time Latitude Longitude Altitude Speed Heading
2026-04-26 13:19 0.04457 32.44197 3813 ft 0 kts 82°
2026-04-26 13:27 0.04455 32.44186 3812 ft 2 kts 82°
2026-04-26 13:27 0.04453 32.44172 3811 ft 2 kts 82°
2026-04-26 13:27 0.04451 32.44157 3811 ft 2 kts 82°
2026-04-26 13:27 0.04449 32.44142 3810 ft 2 kts 82°
2026-04-26 13:28 0.04448 32.44133 3810 ft 2 kts 77°
2026-04-26 13:28 0.04440 32.44120 3810 ft 2 kts 34°
2026-04-26 13:28 0.04426 32.44115 3810 ft 1 kts
2026-04-26 13:28 0.04420 32.44115 3810 ft 1 kts 347°
2026-04-26 13:29 0.04416 32.44116 3810 ft 0 kts 351°
2026-04-26 13:30 0.04432 32.44114 3809 ft 10 kts 351°
2026-04-26 13:31 0.04542 32.44097 3806 ft 17 kts 351°
2026-04-26 13:31 0.04682 32.44079 3795 ft 23 kts 352°
2026-04-26 13:31 0.04852 32.44046 3783 ft 20 kts 331°
2026-04-26 13:31 0.04972 32.44004 3780 ft 18 kts 351°
2026-04-26 13:32 0.05097 32.43987 3781 ft 17 kts 352°
2026-04-26 13:32 0.05189 32.43973 3781 ft 0 kts 351°
2026-04-26 13:32 0.05193 32.43972 3781 ft 4 kts 351°
2026-04-26 13:33 0.05279 32.43950 3781 ft 14 kts 333°
2026-04-26 13:33 0.05346 32.43877 3781 ft 13 kts 303°
2026-04-26 13:33 0.05398 32.43798 3781 ft 13 kts 303°
2026-04-26 13:33 0.05459 32.43708 3781 ft 16 kts 304°
2026-04-26 13:34 0.05409 32.43646 3781 ft 14 kts 177°
2026-04-26 13:34 0.05207 32.43671 3782 ft 62 kts 172°
2026-04-26 13:34 0.04508 32.43770 3777 ft 136 kts 172°
2026-04-26 13:34 0.03775 32.43871 3791 ft 176 kts 174°
2026-04-26 13:35 0.02105 32.44111 4717 ft 186 kts 173°
2026-04-26 13:35 0.00835 32.44288 5430 ft 195 kts 174°
2026-04-26 13:35 -0.00579 32.44465 5937 ft 211 kts 174°
2026-04-26 13:35 -0.02098 32.44665 6425 ft 230 kts 173°
2026-04-26 13:36 -0.03747 32.44893 7054 ft 246 kts 173°
2026-04-26 13:36 -0.05478 32.45134 7677 ft 262 kts 172°
2026-04-26 13:36 -0.07343 32.45393 8332 ft 277 kts 172°
2026-04-26 13:36 -0.09291 32.45663 9083 ft 287 kts 171°
2026-04-26 13:37 -0.11251 32.46111 9919 ft 291 kts 155°
2026-04-26 13:37 -0.12914 32.47271 10648 ft 299 kts 131°
2026-04-26 13:37 -0.14060 32.49027 11189 ft 313 kts 112°
2026-04-26 13:37 -0.14667 32.51172 11754 ft 327 kts 99°
2026-04-26 13:38 -0.14977 32.53436 12388 ft 338 kts 95°
2026-04-26 13:38 -0.15205 32.55789 13217 ft 342 kts 94°
2026-04-26 13:38 -0.15413 32.58136 14028 ft 345 kts 94°
2026-04-26 13:38 -0.15633 32.60538 14807 ft 349 kts 94°
2026-04-26 13:39 -0.15866 32.62935 15572 ft 353 kts 95°
2026-04-26 13:39 -0.16115 32.65394 16315 ft 356 kts 95°
2026-04-26 13:39 -0.16368 32.67854 17024 ft 360 kts 95°
2026-04-26 13:39 -0.16628 32.70358 17716 ft 364 kts 95°
2026-04-26 13:40 -0.16892 32.72899 18346 ft 369 kts 95°
2026-04-26 13:40 -0.17174 32.75441 18993 ft 373 kts 95°
2026-04-26 13:40 -0.17504 32.78024 19596 ft 378 kts 96°
2026-04-26 13:40 -0.17855 32.80608 20183 ft 382 kts 96°
2026-04-26 13:41 -0.18219 32.83254 20745 ft 387 kts 96°
2026-04-26 13:41 -0.18584 32.85919 21303 ft 391 kts 96°
2026-04-26 13:41 -0.18949 32.88603 21838 ft 395 kts 96°
2026-04-26 13:41 -0.19317 32.91330 22349 ft 400 kts 96°
2026-04-26 13:42 -0.19691 32.94122 22893 ft 404 kts 96°
2026-04-26 13:42 -0.20063 32.96908 23418 ft 408 kts 96°
2026-04-26 13:42 -0.20437 32.99715 23961 ft 411 kts 96°
2026-04-26 13:42 -0.20809 33.02513 24484 ft 414 kts 96°
2026-04-26 13:43 -0.21189 33.05365 24982 ft 417 kts 96°
2026-04-26 13:43 -0.21576 33.08275 25517 ft 420 kts 96°
2026-04-26 13:43 -0.21959 33.11154 26008 ft 423 kts 96°
2026-04-26 13:43 -0.22346 33.14067 26476 ft 427 kts 96°
2026-04-26 13:44 -0.22740 33.17035 26934 ft 430 kts 96°
2026-04-26 13:44 -0.23130 33.19972 27373 ft 434 kts 96°
2026-04-26 13:44 -0.23527 33.22962 27821 ft 437 kts 96°
2026-04-26 13:44 -0.23927 33.25970 28279 ft 439 kts 96°
2026-04-26 13:45 -0.24327 33.28981 28779 ft 440 kts 96°
2026-04-26 13:45 -0.24728 33.31991 29549 ft 435 kts 96°
2026-04-26 13:45 -0.25127 33.34979 30287 ft 430 kts 96°
2026-04-26 13:45 -0.25515 33.37889 30869 ft 428 kts 96°
2026-04-26 13:46 -0.25906 33.40838 31086 ft 432 kts 95°
2026-04-26 13:46 -0.26840 33.46762 31082 ft 428 kts 100°
2026-04-26 13:47 -0.28464 33.52451 31077 ft 430 kts 106°
2026-04-26 13:47 -0.30388 33.58108 31074 ft 430 kts 107°
2026-04-26 13:48 -0.32334 33.63763 31073 ft 431 kts 107°
2026-04-26 13:48 -0.34257 33.69425 31073 ft 430 kts 106°
2026-04-26 13:49 -0.36161 33.75093 31075 ft 430 kts 106°
2026-04-26 13:49 -0.38061 33.80776 31076 ft 431 kts 106°
2026-04-26 13:50 -0.39950 33.86438 31075 ft 430 kts 106°
2026-04-26 13:50 -0.41840 33.92106 31075 ft 431 kts 106°
2026-04-26 13:51 -0.43722 33.97786 31074 ft 431 kts 105°
2026-04-26 13:51 -0.45377 34.03548 31075 ft 430 kts 103°
2026-04-26 13:52 -0.46891 34.09275 31086 ft 429 kts 102°
2026-04-26 13:52 -0.48425 34.15034 31101 ft 429 kts 103°
2026-04-26 13:53 -0.49998 34.20854 31111 ft 442 kts 103°
2026-04-26 13:53 -0.51638 34.26881 31120 ft 461 kts 103°
2026-04-26 13:54 -0.53357 34.33165 31121 ft 472 kts 103°
2026-04-26 13:54 -0.55090 34.39473 31124 ft 470 kts 103°
2026-04-26 13:55 -0.57398 34.47872 31130 ft 471 kts 103°
2026-04-26 13:56 -0.60268 34.58334 31149 ft 470 kts 103°
2026-04-26 13:56 -0.62058 34.64580 31173 ft 469 kts 105°
2026-04-26 13:57 -0.63946 34.70863 31195 ft 469 kts 105°
2026-04-26 13:57 -0.65830 34.77106 31214 ft 470 kts 105°
2026-04-26 13:58 -0.67696 34.83327 31226 ft 469 kts 105°
2026-04-26 13:58 -0.69555 34.89550 31237 ft 470 kts 105°
2026-04-26 13:59 -0.71417 34.95797 31250 ft 469 kts 105°
2026-04-26 13:59 -0.73273 35.02034 31266 ft 469 kts 105°
2026-04-26 14:00 -0.76052 35.11378 31380 ft 468 kts 105°
2026-04-26 14:00 -0.76982 35.14501 31528 ft 469 kts 105°
2026-04-26 14:01 -0.78844 35.20752 31265 ft 469 kts 105°
2026-04-26 14:01 -0.80701 35.26982 31391 ft 468 kts 105°
2026-04-26 14:01 -0.81624 35.30080 31286 ft 471 kts 105°
2026-04-26 14:02 -0.82557 35.33213 31290 ft 467 kts 105°
2026-04-26 14:02 -0.83508 35.36322 31456 ft 468 kts 107°
2026-04-26 14:02 -0.84617 35.39395 31643 ft 471 kts 110°
2026-04-26 14:03 -0.87174 35.45349 31410 ft 464 kts 112°
2026-04-26 14:03 -0.88506 35.48262 31278 ft 457 kts 113°
2026-04-26 14:03 -0.89833 35.51152 31270 ft 456 kts 113°
2026-04-26 14:03 -0.91143 35.54014 31020 ft 449 kts 112°
2026-04-26 14:04 -0.92424 35.56827 30756 ft 439 kts 112°
2026-04-26 14:04 -0.93649 35.59538 30497 ft 428 kts 112°
2026-04-26 14:04 -0.94856 35.62227 30237 ft 418 kts 112°
2026-04-26 14:04 -0.96026 35.64852 29982 ft 411 kts 112°
2026-04-26 14:05 -0.97197 35.67487 29725 ft 412 kts 112°
2026-04-26 14:05 -0.98358 35.70111 29470 ft 413 kts 112°
2026-04-26 14:05 -0.99518 35.72734 29215 ft 412 kts 112°
2026-04-26 14:05 -1.00657 35.75314 28963 ft 409 kts 112°
2026-04-26 14:06 -1.01802 35.77907 28709 ft 406 kts 112°
2026-04-26 14:06 -1.02936 35.80476 28459 ft 403 kts 112°
2026-04-26 14:06 -1.04067 35.83039 28214 ft 402 kts 112°
2026-04-26 14:06 -1.05190 35.85585 27970 ft 402 kts 112°
2026-04-26 14:07 -1.06315 35.88134 27725 ft 401 kts 112°
2026-04-26 14:07 -1.07439 35.90683 27480 ft 400 kts 112°
2026-04-26 14:07 -1.08560 35.93224 27235 ft 399 kts 112°
2026-04-26 14:07 -1.09678 35.95760 26974 ft 396 kts 112°
2026-04-26 14:08 -1.10780 35.98256 26599 ft 391 kts 112°
2026-04-26 14:08 -1.11865 36.00715 26127 ft 388 kts 112°
2026-04-26 14:08 -1.12958 36.03190 25620 ft 387 kts 111°
2026-04-26 14:08 -1.14042 36.05648 25109 ft 386 kts 111°
2026-04-26 14:09 -1.15123 36.08098 24588 ft 384 kts 111°
2026-04-26 14:09 -1.16196 36.10529 24073 ft 383 kts 111°
2026-04-26 14:09 -1.17267 36.12958 23556 ft 382 kts 111°
2026-04-26 14:09 -1.18322 36.15351 23056 ft 380 kts 111°
2026-04-26 14:10 -1.19392 36.17777 22534 ft 379 kts 111°
2026-04-26 14:10 -1.20440 36.20153 22033 ft 378 kts 111°
2026-04-26 14:10 -1.21502 36.22562 21525 ft 376 kts 111°
2026-04-26 14:10 -1.22559 36.24961 21015 ft 375 kts 111°
2026-04-26 14:11 -1.24649 36.29701 20000 ft 373 kts 111°
2026-04-26 14:11 -1.25683 36.32046 19494 ft 371 kts 111°
2026-04-26 14:11 -1.26726 36.34407 18982 ft 370 kts 111°
2026-04-26 14:12 -1.27748 36.36724 18484 ft 368 kts 111°
2026-04-26 14:12 -1.28779 36.39065 17979 ft 366 kts 111°
2026-04-26 14:12 -1.29796 36.41376 17478 ft 359 kts 111°
2026-04-26 14:12 -1.30790 36.43635 16996 ft 352 kts 111°
2026-04-26 14:13 -1.32720 36.48017 16052 ft 340 kts 111°
2026-04-26 14:13 -1.33643 36.50174 15610 ft 334 kts 110°
2026-04-26 14:13 -1.34469 36.52321 15090 ft 329 kts 108°
2026-04-26 14:14 -1.35231 36.54433 14527 ft 327 kts 108°
2026-04-26 14:14 -1.35998 36.56573 13941 ft 324 kts 108°
2026-04-26 14:14 -1.36762 36.58670 13378 ft 321 kts 108°
2026-04-26 14:14 -1.37530 36.60739 12821 ft 319 kts 109°
2026-04-26 14:15 -1.38303 36.62801 12404 ft 311 kts 109°
2026-04-26 14:15 -1.39047 36.64772 12157 ft 298 kts 109°
2026-04-26 14:15 -1.39773 36.66689 11885 ft 287 kts 109°
2026-04-26 14:15 -1.40394 36.68570 11444 ft 283 kts 100°
2026-04-26 14:16 -1.40545 36.70497 11008 ft 279 kts 88°
2026-04-26 14:16 -1.40461 36.72425 10601 ft 276 kts 90°
2026-04-26 14:16 -1.40727 36.74290 10287 ft 269 kts 104°
2026-04-26 14:16 -1.41252 36.76054 9996 ft 261 kts 107°
2026-04-26 14:17 -1.41752 36.77753 9763 ft 251 kts 101°
2026-04-26 14:17 -1.41759 36.79472 9421 ft 247 kts 75°
2026-04-26 14:17 -1.40962 36.81029 8896 ft 258 kts 49°
2026-04-26 14:17 -1.39670 36.82232 8372 ft 253 kts 45°
2026-04-26 14:18 -1.38564 36.83547 7760 ft 245 kts 60°
2026-04-26 14:18 -1.37709 36.85006 7055 ft 243 kts 59°
2026-04-26 14:18 -1.36725 36.86327 6507 ft 230 kts 52°
2026-04-26 14:18 -1.35767 36.87503 6302 ft 204 kts 57°
2026-04-26 14:19 -1.35004 36.88636 6046 ft 192 kts 58°
2026-04-26 14:19 -1.34213 36.89690 5775 ft 185 kts 53°
2026-04-26 14:19 -1.33442 36.90663 5560 ft 171 kts 58°
2026-04-26 14:19 -1.32797 36.91581 5399 ft 152 kts 56°
2026-04-26 14:20 -1.32211 36.92388 5316 ft 129 kts 54°
2026-04-26 14:20 -1.31861 36.92863 5318 ft 61 kts 53°
2026-04-26 14:20 -1.31617 36.93196 5315 ft 39 kts 53°
2026-04-26 14:20 -1.31568 36.93329 5312 ft 15 kts 143°
2026-04-26 14:21 -1.31656 36.93398 5308 ft 17 kts 146°
2026-04-26 14:21 -1.31741 36.93457 5302 ft 0 kts 143°
2026-04-26 14:21 -1.31743 36.93459 5302 ft 1 kts 143°
2026-04-26 14:22 -1.31792 36.93480 5301 ft 10 kts 180°
2026-04-26 14:22 -1.31839 36.93450 5302 ft 6 kts 228°
2026-04-26 14:22 -1.31863 36.93417 5303 ft 5 kts 232°
2026-04-26 14:22 -1.31888 36.93384 5305 ft 8 kts 233°
2026-04-26 14:23 -1.31922 36.93337 5307 ft 9 kts 234°
2026-04-26 14:23 -1.31969 36.93273 5310 ft 16 kts 233°
2026-04-26 14:23 -1.32057 36.93154 5317 ft 22 kts 233°
2026-04-26 14:23 -1.32140 36.93041 5322 ft 17 kts 234°
2026-04-26 14:24 -1.32204 36.92954 5325 ft 14 kts 233°
2026-04-26 14:24 -1.32259 36.92880 5325 ft 13 kts 233°
2026-04-26 14:24 -1.32336 36.92772 5326 ft 23 kts 233°
2026-04-26 14:24 -1.32429 36.92645 5324 ft 22 kts 233°
2026-04-26 14:25 -1.32522 36.92518 5321 ft 22 kts 235°
2026-04-26 14:25 -1.32605 36.92403 5319 ft 16 kts 231°
2026-04-26 14:25 -1.32689 36.92357 5315 ft 15 kts 155°
2026-04-26 14:25 -1.32770 36.92379 5313 ft 10 kts 202°
2026-04-26 14:26 -1.32822 36.92326 5313 ft 9 kts 233°
2026-04-26 14:26 -1.32862 36.92285 5315 ft 6 kts 218°
2026-04-26 14:26 -1.32909 36.92254 5316 ft 15 kts 205°
2026-04-26 14:26 -1.33000 36.92223 5318 ft 11 kts 189°
2026-04-26 14:27 -1.33056 36.92237 5318 ft 7 kts 113°
2026-04-26 14:27 -1.33058 36.92287 5317 ft 5 kts 87°
2026-04-26 14:27 -1.33058 36.92303 5317 ft 0 kts 89°